Zurück zum Katalog

STARLINK-35471

AktivKommunikationVLEO
NORAD 65864·PAYLOAD·🇺🇸 United States

Gestartet Oct 3, 2025 von Vandenberg Space Force Base

Loading…

Nächste Überflüge (nächste 24 Stunden)

TLE

AktuellSource: CelesTrak SupGP

Epoche: Sep 15, 2026, 03:29 UTC

1 65864C 25223L   26258.14562500  .00044436  00000+0  13129-2 0  2585
2 65864  53.1574 132.4609 0001187  78.3551  19.5439 15.34366646    13

Verfolge STARLINK-35471 in Echtzeit mit AllMySat

Download on the App Store